Location: Asheville, NC
(35.6000°N, 82.5500°W)
Time: 18:40:06
(UTC-05:00)

Vanguard 1 Rocket - Pass Details

Date: 18 February 2018
Orbit: 655 x 4222 km, 34.3° (Epoch: 16 February)

Event Time Altitude Azimuth Distance (km) Brightness Sun altitude
Rises 02:55:59 0° 272° (W) 8,015 - -51.8°
Reaches altitude 10° 03:01:08 10° 272° (W) 7,212 - -50.8°
Exits shadow 03:24:38 75° 258° (WSW) 4,123 10.2 -46.6°
Maximum altitude 03:27:53 85° 189° (S) 3,938 10.2 -46.0°
Drops below altitude 10° 03:47:16 10° 104° (ESE) 5,543 11.9 -42.3°
Sets 03:50:36 0° 103° (ESE) 6,188 12.3 -41.6°
